LA6JKA Weather Reports


Display with metric or nautical units.
time (UTC)temp
F
wind
direction
speed
MPH
gust
MPH
rain 1hr
in
rain 24hr
in
rain mn
in
humidity
%
barometer
mb
20260507223002 0 0.0 0.0 0.00 0.00 0.00 1020.0
20260507221558 0 0.0 0.0 0.00 0.00 0.00 1020.0
20260507220054 38 30 1.0 2.0 0.00 0.00 0.00 65 1019.8
20260507214556 38 288 0.0 0.0 0.00 0.00 0.00 63 1019.9
20260507213057 39 288 0.0 2.0 0.00 0.00 0.00 62 1019.8
20260507211553 40 287 1.0 2.0 0.00 0.00 0.00 61 1019.5
20260507210049 41 230 0.0 0.0 0.00 0.00 0.00 60 1019.4
20260507204548 42 230 0.0 2.0 0.00 0.00 0.00 57 1019.3
20260507203047 43 230 0.0 1.0 0.00 0.00 0.00 53 1019.2
20260507201549 44 230 0.0 0.0 0.00 0.00 0.00 52 1019.1
20260507200046 45 230 0.0 1.0 0.00 0.00 0.00 49 1018.9
20260507194541 47 230 0.0 2.0 0.00 0.00 0.00 46 1018.8
20260507193042 49 230 0.0 2.0 0.00 0.00 0.00 43 1018.5
20260507191542 50 230 1.0 2.0 0.00 0.00 0.00 41 1018.3
20260507190038 52 230 1.0 3.0 0.00 0.00 0.00 37 1018.1
20260507184536 54 218 3.0 6.0 0.00 0.00 0.00 33 1018.0
20260507183045 56 213 0.0 2.0 0.00 0.00 0.00 28 1017.8
20260507181533 60 276 0.0 3.0 0.00 0.00 0.00 25 1017.7
20260507180044 61 276 1.0 3.0 0.00 0.00 0.00 23 1017.6
20260507174533 60 253 0.0 7.0 0.00 0.00 0.00 24 1017.4
20260507173030 62 61 1.0 5.0 0.00 0.00 0.00 22 1017.2
20260507171528 61 259 0.0 2.0 0.00 0.00 0.00 21 1017.3
20260507170042 62 171 2.0 5.0 0.00 0.00 0.00 24 1017.3
20260507164525 61 262 1.0 7.0 0.00 0.00 0.00 22 1017.1
20260507163024 60 263 3.0 11.0 0.00 0.00 0.00 22 1017.2
20260507161521 61 5 1.0 7.0 0.00 0.00 0.00 22 1017.2
20260507160021 60 306 2.0 11.0 0.00 0.00 0.00 21 1017.3
20260507154522 60 355 6.0 13.0 0.00 0.00 0.00 22 1017.1
20260507153018 60 10 3.0 8.0 0.00 0.00 0.00 20 1017.1
20260507151519 60 360 1.0 10.0 0.00 0.00 0.00 21 1017.1
20260507150017 59 333 6.0 10.0 0.00 0.00 0.00 21 1017.1
20260507144515 59 36 4.0 10.0 0.00 0.00 0.00 21 1017.1
20260507143013 60 10 5.0 9.0 0.00 0.00 0.00 26 1017.0
20260507141513 59 303 1.0 8.0 0.00 0.00 0.00 25 1017.0
20260507140012 59 239 4.0 7.0 0.00 0.00 0.00 27 1016.9
20260507134511 59 334 4.0 9.0 0.00 0.00 0.00 26 1016.9
20260507133010 59 234 5.0 10.0 0.00 0.00 0.00 26 1017.0
20260507131508 58 313 3.0 8.0 0.00 0.00 0.00 31 1017.0
20260507130006 57 338 4.0 11.0 0.00 0.00 0.00 27 1017.1
20260507124505 57 349 3.0 8.0 0.00 0.00 0.00 26 1017.1
20260507123003 56 205 0.0 8.0 0.00 0.00 0.00 27 1017.1
20260507121601 55 292 6.0 11.0 0.00 0.00 0.00 29 1017.0
20260507120059 56 303 5.0 11.0 0.00 0.00 0.00 26 1017.0
20260507114600 55 148 2.0 7.0 0.00 0.00 0.00 33 1017.1
20260507113056 55 246 2.0 12.0 0.00 0.00 0.00 30 1016.9
20260507111556 55 213 2.0 10.0 0.00 0.00 0.00 33 1017.0
20260507110100 55 246 3.0 8.0 0.00 0.00 0.00 30 1016.9
20260507104600 54 229 2.0 6.0 0.00 0.00 0.00 36 1016.8
20260507103115 54 329 2.0 6.0 0.00 0.00 0.00 33 1016.8
20260507101546 52 26 1.0 4.0 0.00 0.00 0.00 38 1016.7
20260507100058 52 299 2.0 9.0 0.00 0.00 0.00 38 1016.6
20260507094542 51 22 0.0 9.0 0.00 0.00 0.00 38 1016.5
20260507093040 51 303 4.0 7.0 0.00 0.00 0.00 38 1016.7
20260507091542 50 57 1.0 8.0 0.00 0.00 0.00 40 1016.7
20260507090036 49 360 0.0 9.0 0.00 0.00 0.00 38 1016.6
20260507084542 49 313 3.0 8.0 0.00 0.00 0.00 42 1016.7
20260507083032 49 5 4.0 8.0 0.00 0.00 0.00 46 1016.6
20260507081528 48 30 3.0 6.0 0.00 0.00 0.00 45 1016.6
20260507080025 47 22 3.0 8.0 0.00 0.00 0.00 47 1016.5
20260507074521 46 9 2.0 8.0 0.00 0.00 0.00 47 1016.4
20260507073017 45 331 4.0 9.0 0.00 0.00 0.00 49 1016.3
20260507071520 45 340 3.0 9.0 0.00 0.00 0.00 50 1016.1
20260507070013 44 325 4.0 9.0 0.00 0.00 0.00 51 1016.1
20260507064509 43 360 2.0 6.0 0.00 0.00 0.00 53 1016.1
20260507063005 42 39 3.0 8.0 0.00 0.00 0.00 54 1016.1
20260507061502 41 5 2.0 5.0 0.00 0.00 0.00 54 1015.9
20260507060103 41 360 4.0 9.0 0.00 0.00 0.00 54 1015.7
20260507054613 40 9 2.0 6.0 0.00 0.00 0.00 56 1015.7
20260507053103 39 344 3.0 5.0 0.00 0.00 0.00 57 1015.6
20260507051555 38 326 3.0 6.0 0.00 0.00 0.00 58 1015.5
20260507050053 37 333 3.0 6.0 0.00 0.00 0.00 59 1015.4
20260507044554 36 321 2.0 4.0 0.00 0.00 0.00 61 1015.3
20260507043046 35 306 2.0 6.0 0.00 0.00 0.00 63 1015.2
20260507041558 33 316 1.0 4.0 0.00 0.00 0.00 66 1015.1
20260507040043 32 306 2.0 4.0 0.00 0.00 0.00 69 1015.0
20260507034542 31 295 2.0 4.0 0.00 0.00 0.00 71 1014.9
20260507033041 30 319 1.0 4.0 0.00 0.00 0.00 72 1014.7
20260507031541 30 309 1.0 3.0 0.00 0.00 0.00 72 1014.7
20260507030036 31 311 0.0 2.0 0.00 0.00 0.00 72 1014.6
20260507024537 31 311 0.0 1.0 0.00 0.00 0.00 70 1014.6
20260507023030 32 311 0.0 2.0 0.00 0.00 0.00 67 1014.5
20260507021534 32 317 1.0 4.0 0.00 0.00 0.00 67 1014.4
20260507020027 33 317 1.0 3.0 0.00 0.00 0.00 66 1014.3
20260507014529 33 319 2.0 5.0 0.00 0.00 0.00 67 1014.2
20260507013023 33 317 1.0 3.0 0.00 0.00 0.00 67 1014.1
20260507011523 33 309 0.0 2.0 0.00 0.00 0.00 66 1013.9
20260507010029 34 314 0.0 3.0 0.00 0.00 0.00 64 1013.9
20260507004518 35 316 0.0 3.0 0.00 0.00 0.00 60 1013.9
20260507003016 36 305 1.0 3.0 0.00 0.00 0.00 61 1013.8
20260507001516 35 324 2.0 5.0 0.00 0.00 0.00 60 1013.7
20260507000019 34 328 2.0 4.0 0.00 0.00 0.00 65 1013.8
20260506234510 35 317 0.0 2.0 0.00 0.00 0.00 64 1013.6
20260506233007 36 5 1.0 2.0 0.00 0.00 0.00 63 1013.6
20260506231505 37 5 0.0 1.0 0.00 0.00 0.00 60 1013.5
20260506230001 37 335 1.0 3.0 0.00 0.00 0.00 61 1013.3
20260506224600 37 350 0.0 2.0 0.00 0.00 0.00 60 1013.2